RH
69 69 70 71 68 66 65 64 64 64 63 62 61 63 65 65 62 56 54 57 57 59 63 66 66 64 60 58 60 61 61 61 58 56 56 59 59 58 58 57 56 56
70 68 70 70 69 68 67 64 64 64 64 65 62 61 65 65 60 59 57 56 57 60 64 66 67 65 60 58 61 61 60 62 61 56 56 59 62 64 63 60 59 60
69 68 70 69 66 66 67 64 65 66 65 66 64 61 64 65 62 61 60 59 60 62 64 65 66 66 61 59 61 61 59 62 62 56 55 58 63 65 63 60 58 57
70 69 69 67 63 63 65 64 65 68 65 62 62 61 64 66 65 64 63 63 64 63 64 64 64 65 64 61 62 61 60 61 61 57 56 57 59 63 63 62 61 57
72 71 69 67 63 61 64 64 64 66 63 60 61 62 66 69 66 64 65 67 66 64 63 65 64 64 65 63 62 62 61 60 59 58 59 58 57 58 59 58 59 59
73 73 71 69 65 63 64 64 63 62 60 59 61 64 68 72 68 65 66 68 65 62 62 64 65 63 64 65 64 63 62 59 57 57 58 58 58 56 53 53 54 57
72 73 73 71 68 66 65 65 64 62 59 57 61 66 68 71 71 66 66 67 64 62 63 65 66 64 63 65 66 64 65 63 59 58 57 58 59 58 56 55 55 57
72 74 75 74 71 68 66 66 67 66 62 58 61 66 68 71 73 68 65 66 64 63 65 66 68 67 64 65 66 66 67 66 63 62 61 60 60 60 61 60 59 59
73 74 76 74 72 69 65 62 65 69 66 63 62 64 68 72 72 67 63 66 66 64 68 69 68 70 68 65 66 67 66 65 63 63 63 63 63 62 62 61 60 60
72 72 73 72 70 67 62 58 63 69 71 70 63 61 68 72 71 66 62 67 71 67 67 70 70 74 73 67 66 66 64 63 63 63 63 62 63 62 62 61 59 59
71 69 70 70 65 61 58 57 61 67 71 70 63 62 70 69 65 64 62 68 73 67 69 75 77 79 76 69 66 65 63 64 65 66 64 62 63 63 63 61 58 57
71 68 68 67 61 59 58 54 57 65 65 60 60 66 69 64 61 62 65 72 71 66 75 81 78 77 74 70 68 63 63 66 66 66 65 63 63 63 64 62 59 59
70 67 67 64 60 62 60 52 55 62 57 52 60 67 64 59 60 61 68 75 64 57 70 78 76 75 72 70 69 64 65 68 66 65 64 63 63 63 62 61 58 57
67 68 67 63 60 63 61 56 60 63 57 54 60 61 55 55 59 60 67 69 53 45 60 73 76 75 69 69 71 68 67 68 67 66 65 64 65 63 63 61 57 56
67 69 69 66 65 65 61 61 65 64 57 52 48 46 48 54 58 58 61 61 51 51 65 72 72 69 66 67 71 70 70 69 68 68 66 66 67 64 63 62 59 59
68 71 72 72 72 68 61 62 66 61 53 46 43 46 53 58 61 62 61 58 55 60 68 70 67 66 65 67 69 73 74 71 68 69 69 69 69 68 65 61 59 61
74 79 79 78 76 70 65 65 66 59 51 48 51 57 63 64 65 66 64 61 59 63 68 70 67 64 65 68 70 73 76 74 71 70 70 71 71 68 65 62 62 64
81 85 83 80 75 70 68 66 64 59 55 59 66 70 73 73 73 71 65 60 61 65 68 69 66 63 66 68 64 63 69 75 75 71 69 72 73 70 66 65 65 66
85 84 82 80 75 71 70 67 66 63 62 67 74 77 79 79 77 74 67 61 62 66 64 62 62 65 70 64 52 49 58 69 73 73 72 73 74 71 69 68 68 69
88 84 83 82 80 77 75 74 73 72 71 73 75 77 80 80 77 75 72 68 68 68 64 60 60 65 70 64 50 47 58 67 72 77 75 72 72 75 77 75 73 75
90 86 83 83 83 82 80 79 78 77 77 75 72 72 76 78 76 73 72 71 71 70 68 64 61 61 66 66 55 52 62 69 72 75 72 68 70 75 77 76 75 77
90 87 83 82 83 82 81 80 79 78 78 76 73 70 71 74 73 71 71 71 72 72 70 66 62 61 65 66 63 65 72 73 72 72 70 71 74 73 72 75 78 80
87 88 84 83 81 80 79 79 79 78 77 75 74 70 67 67 68 68 69 71 72 72 70 67 66 68 70 68 66 70 74 74 74 75 75 77 80 78 78 81 83 83
85 87 85 84 82 79 79 78 76 76 76 75 74 71 66 63 63 63 65 66 67 67 68 69 70 76 80 73 63 62 69 74 77 76 75 76 76 81 85 81 79 84
83 85 84 84 82 80 79 79 78 77 77 77 75 72 69 68 66 66 66 67 67 67 69 73 74 79 84 76 63 63 71 77 78 74 72 71 71 81 88 80 77 85
77 80 80 79 81 80 78 78 77 76 77 78 77 75 74 74 71 70 69 71 74 74 75 79 77 76 81 77 65 65 71 76 79 77 70 65 67 76 83 80 81 86
Wind_Speed
22 21 19 18 17 16 15 15 14 13 12 11 11 10 10 10 10 11 11 10 10 9 9 9 9 8 7 7 6 6 5 5 5 5 5 5 5 5 5 5 5 5
23 22 20 18 17 17 16 15 14 14 13 12 12 11 11 12 12 12 12 12 11 11 11 10 10 10 9 8 8 7 6 6 6 6 6 7 7 7 7 7 7 7
24 23 22 20 19 18 18 17 15 15 14 14 13 12 12 13 14 13 13 13 12 12 12 12 11 11 10 10 9 9 8 7 7 7 8 8 8 8 8 8 8 8
25 24 23 21 20 20 19 18 17 16 16 15 14 13 13 13 14 14 14 14 13 13 13 13 13 12 12 11 11 10 9 9 8 8 8 9 9 9 9 9 9 9
26 25 24 23 22 21 21 20 19 18 17 15 14 13 13 14 14 14 14 14 14 14 14 15 14 14 14 13 12 11 10 9 9 9 9 9 10 10 10 10 10 10
27 26 26 25 24 23 22 21 19 18 17 15 14 13 14 15 15 14 15 15 15 16 16 16 17 16 16 15 15 13 11 10 10 10 10 11 11 11 11 11 11 11
27 28 28 26 25 24 22 20 19 18 17 17 16 15 15 16 15 15 16 17 17 18 18 19 19 19 19 18 18 16 14 13 11 11 11 12 12 12 12 12 12 12
28 29 28 26 25 23 21 20 19 19 19 18 18 17 17 17 17 17 18 20 21 20 20 20 20 20 20 20 20 19 18 15 14 13 13 13 13 13 13 13 13 13
29 28 27 27 25 23 22 21 20 20 21 22 21 20 20 20 21 22 24 25 24 22 22 21 20 20 19 19 19 20 20 17 15 14 13 13 13 13 13 13 13 14
29 28 28 27 25 23 23 23 22 21 23 25 25 23 23 25 26 28 29 29 27 25 24 23 22 21 20 19 19 19 19 18 15 14 13 13 13 13 13 14 14 14
30 29 28 28 26 24 25 25 25 26 27 28 27 26 29 31 33 34 34 32 30 27 26 25 23 22 21 20 19 19 18 17 15 15 14 14 14 14 14 14 13 13
30 29 28 28 28 28 29 29 30 31 31 29 28 30 35 38 39 38 35 32 31 29 28 28 27 24 21 19 19 18 17 16 15 15 14 14 14 14 14 14 13 13
30 29 30 32 32 32 33 33 33 33 33 32 32 35 40 42 40 37 34 33 33 32 31 31 27 23 20 19 19 19 18 17 16 15 15 15 15 14 14 13 13 15
29 30 34 38 38 37 36 34 33 35 35 35 37 40 44 44 41 39 36 35 35 34 32 29 25 22 21 21 21 20 19 18 17 16 16 16 16 15 14 14 14 14
29 30 34 39 38 37 38 36 37 39 40 40 42 45 46 44 41 40 38 36 34 33 30 26 24 22 22 22 22 21 20 19 17 17 16 16 17 17 16 16 15 14
29 29 31 33 34 39 42 42 42 45 45 44 46 46 45 42 39 36 35 34 34 31 27 25 24 23 23 24 24 22 20 19 18 17 17 16 17 18 17 16 15 15
26 28 28 30 34 40 44 44 45 46 46 45 44 42 40 38 36 33 30 29 29 27 24 24 23 23 24 26 26 24 22 19 18 18 17 17 18 19 18 16 15 15
26 29 29 32 38 41 42 43 44 44 43 39 35 31 30 30 30 30 27 25 24 24 24 23 22 22 25 26 27 28 26 21 18 17 16 16 18 19 18 17 16 15
29 31 29 31 36 38 39 40 40 39 37 30 23 21 23 23 22 24 24 23 22 22 23 23 21 22 25 26 26 28 29 26 19 15 15 16 17 17 17 17 16 14
30 31 28 28 30 31 32 32 31 30 28 23 18 17 19 20 20 20 22 22 21 21 21 21 20 21 24 25 24 26 29 28 23 19 19 19 18 17 16 17 17 15
28 28 26 25 25 26 26 26 24 23 22 20 19 18 17 18 19 20 20 20 20 19 18 18 19 20 21 22 23 25 27 27 25 24 24 22 21 21 20 20 19 16
26 26 23 22 24 25 24 23 22 21 20 19 19 18 17 16 17 18 19 19 19 18 18 18 18 19 21 21 21 23 24 23 23 26 26 23 21 22 23 22 18 14
25 25 22 21 24 25 24 22 21 20 19 19 19 19 19 18 18 18 18 18 19 20 21 21 18 19 22 23 21 21 21 22 24 25 22 19 17 17 18 17 14 12
25 25 22 21 23 25 23 21 19 19 19 19 19 19 19 19 19 18 18 19 20 20 21 20 18 19 23 24 23 22 22 23 24 22 18 16 15 15 16 17 15 13
25 25 24 22 23 23 22 20 19 18 17 17 16 16 16 16 16 15 15 16 17 17 18 18 18 20 23 26 25 23 23 24 22 18 15 14 15 17 17 16 12 11
26 26 25 24 23 22 20 19 18 17 15 14 14 14 13 13 13 14 13 13 13 14 16 18 19 20 23 26 26 24 26 25 18 14 13 14 16 17 14 10 9 10
Wind_Direction
200 202 203 204 207 208 206 203 200 200 200 199 199 195 191 191 189 192 198 202 207 207 204 201 200 199 197 197 198 205 214 221 226 228 229 233 238 248 256 258 264 274
199 200 202 202 204 206 206 206 201 199 200 199 200 195 190 194 196 194 197 204 206 203 202 200 197 196 197 197 198 203 210 218 229 235 236 241 246 250 254 259 261 260
200 200 201 201 203 204 204 203 199 198 199 197 198 196 189 191 195 194 195 201 202 201 200 199 198 197 197 197 197 203 208 211 224 236 242 246 249 253 256 258 260 258
200 200 200 202 203 203 201 200 197 196 198 198 198 196 189 187 191 192 194 198 200 201 199 198 199 197 196 198 199 204 209 211 221 234 244 251 252 255 258 258 258 258
199 200 200 201 202 201 200 199 198 196 196 197 195 193 189 188 190 192 194 196 199 202 202 199 200 198 196 197 199 205 212 215 221 227 237 248 253 256 258 256 253 253
198 199 199 200 200 199 198 198 198 197 196 196 194 193 190 189 190 192 193 198 201 204 204 202 201 199 196 194 196 203 212 220 223 224 231 239 244 251 255 257 256 254
196 197 197 197 196 196 195 194 194 194 195 194 192 191 193 193 193 193 195 200 205 205 204 204 202 200 197 193 191 195 206 218 225 226 232 237 239 243 249 253 255 253
193 194 194 192 191 192 191 190 190 189 190 190 189 190 194 195 193 195 199 202 205 206 205 205 205 203 202 197 190 189 196 208 218 223 228 234 238 241 242 246 250 251
192 191 191 188 186 186 187 189 190 186 185 186 189 193 194 193 194 199 204 204 203 204 203 203 205 205 207 204 197 193 193 200 211 217 222 228 233 237 239 242 245 247
191 190 189 186 183 183 185 188 189 186 184 186 190 194 192 192 198 204 207 204 199 200 202 202 202 202 205 208 209 205 197 198 207 215 222 229 232 236 239 241 245 248
191 190 188 185 183 185 185 186 189 188 187 189 192 193 192 197 204 208 210 204 197 198 200 200 201 201 202 207 217 217 204 198 206 215 222 228 232 237 240 243 247 252
188 186 184 183 184 185 185 189 193 191 191 194 194 194 198 205 210 211 209 203 196 197 198 201 204 204 203 208 219 222 210 200 205 213 221 227 230 235 239 243 248 253
185 182 181 182 183 184 187 192 194 192 193 195 195 198 205 210 211 210 207 201 200 202 202 205 206 202 203 209 217 222 215 205 204 210 218 224 227 230 235 239 245 250
186 182 182 184 184 185 187 190 191 192 195 195 198 205 211 212 212 210 207 204 204 205 205 205 203 198 202 209 215 219 216 210 207 209 215 222 224 226 228 234 243 250
184 184 185 185 183 183 187 190 192 196 199 202 206 211 213 213 212 212 210 206 204 203 202 202 200 199 201 207 212 214 215 213 209 209 215 222 226 228 227 231 240 246
181 183 185 182 180 185 191 194 196 200 204 207 210 212 212 211 211 211 209 204 200 198 198 199 200 200 202 206 209 210 212 213 210 210 213 219 227 231 231 233 238 243
173 174 178 179 182 189 193 195 198 201 205 207 208 209 211 210 210 208 202 196 195 195 197 199 200 202 203 206 209 211 212 212 212 212 212 219 228 231 232 234 235 239
166 167 174 182 187 192 195 197 200 202 204 205 205 207 208 207 207 203 195 190 193 196 199 201 203 203 203 206 212 216 216 215 216 217 215 217 225 230 233 236 236 237
165 169 176 184 190 195 198 199 201 203 205 206 205 206 206 203 201 197 192 191 194 198 203 206 207 207 205 208 216 222 223 221 220 223 220 217 224 232 234 234 236 238
165 169 176 184 191 196 199 199 201 204 207 208 205 205 205 202 198 194 193 194 196 199 204 207 211 211 208 211 220 227 227 225 224 229 232 229 231 233 232 233 237 239
164 169 176 187 196 199 200 203 205 207 210 211 211 212 209 204 201 198 197 200 202 204 206 210 216 219 213 213 222 229 229 224 223 231 238 240 239 238 240 242 242 241
166 171 178 191 201 204 206 209 210 212 214 214 216 218 215 212 211 207 204 204 205 208 213 217 221 223 218 215 220 225 223 221 226 233 238 241 242 245 248 248 245 243
166 170 180 193 200 203 206 209 211 213 215 216 220 223 222 222 223 220 215 213 213 216 222 225 226 223 219 217 218 219 218 221 226 230 233 234 238 244 244 238 235 236
166 169 179 190 196 199 203 206 209 211 213 216 221 224 225 227 228 229 227 226 227 226 226 226 226 223 219 217 219 222 221 219 219 222 226 230 237 244 236 225 223 229
172 173 179 186 191 194 197 199 201 203 206 210 214 219 221 223 225 228 230 229 230 231 228 224 224 226 223 220 221 224 221 215 215 220 224 228 241 248 239 227 223 229
177 177 180 184 187 188 191 193 194 196 198 201 207 210 211 214 221 226 228 221 216 220 224 222 223 228 229 227 228 228 221 214 209 211 221 234 245 244 234 218 208 219